Preview of NWS' New Version of Forecast
This preview is not operational and should not be used for support decisions.

Regional Weather Roundup (RWR)

Issued by Gray - Portland, ME (GYX)

                            
206 
ASUS41 KGYX 210205
RWRGYX
WEATHER ROUNDUP FOR MAINE AND NEW HAMPSHIRE
NATIONAL WEATHER SERVICE GRAY ME
1000 PM EDT FRI APR 20 2018

MEZ002-005-006-010-012-015-018-020-021-024-026-027-029-210300-
MAINE
  
CITY           SKY/WX    TMP DP  RH WIND       PRES   REMARKS
PORTLAND       CLOUDY    41  30  65 W13       30.18R                  
SANFORD        MOCLDY    39  28  64 W9        30.21R                  
BAR HARBOR     CLOUDY    40  35  83 W5        30.09R                  
WISCASSET      MOCLDY    42  31  64 W5        30.16R                  
ROCKLAND       CLOUDY    42  34  73 W9        30.12R                  
FRYEBURG       MOCLDY    39  30  70 W9        30.19R                  
LEWISTONAUBURN CLOUDY    41  30  65 NW9       30.17R                  
AUGUSTA        CLOUDY    42  31  64 NW9       30.14R                  
WATERVILLE     CLOUDY    40  33  76 NW8       30.11R                  
BANGOR         CLOUDY    43  32  65 NW8       30.09R                  
GREENVILLE       N/A     33  31  92 NW16G23   30.06R                  
MILLINOCKET    CLOUDY    39  31  72 NW10      30.08R                  
HOULTON        MOCLDY    39  27  62 N8        30.03R                  
PRESQUE ISLE   CLOUDY    38  27  64 N10       30.06R                  
FRENCHVILLE    CLOUDY    37  26  64 NW10      30.04R                  
CARIBOU        CLOUDY    37  26  64 N10G20    30.04R                  
$$

NHZ002-005-008-009-011-012-014-210300-
NEW HAMPSHIRE
  
CITY           SKY/WX    TMP DP  RH WIND       PRES   REMARKS
PORTSMOUTH     PTCLDY    40  26  59 W9        30.21R                  
ROCHESTER      FAIR      39  28  64 W7        30.20R                  
NASHUA         FAIR      40  27  59 NW8       30.26R                  
MANCHESTER     FAIR      43  26  51 NW7       30.24R                  
CONCORD        FAIR      39  27  62 NW10      30.24S                  
LACONIA        MOCLDY    38  27  64 VRB5      30.24R                  
PLYMOUTH       CLOUDY    38  28  67 W6        30.24R                  
BERLIN         FLURRIES  37  30  75 VRB6      30.17S                  
WHITEFIELD     CLOUDY    36  29  75 CALM      30.21R                  
JAFFREY        FAIR      38  26  62 VRB6      30.24R                  
KEENE          CLOUDY    39  26  59 VRB5      30.28R                  
LEBANON        CLOUDY    40  24  53 NW7       30.25S                  
MT WASHINGTON  SNOW      14  14 100 NW41G60     N/A  VSB 0   WCI -10  
$$

VTZ005-007-008-210300-
VERMONT
  
CITY           SKY/WX    TMP DP  RH WIND       PRES   REMARKS
ST JOHNSBURY     N/A     38  29  70 MISG      30.22R                  
MONTPELIER     CLOUDY    36  28  73 W5        30.27S                  
BURLINGTON     CLOUDY    43  26  51 W8        30.27R                  
$$

MAZ007-012-024-CTZ003-RIZ002-NYZ038-NYZ072-210300-
SOUTHERN NEW ENGLAND AND NY
  
CITY           SKY/WX    TMP DP  RH WIND       PRES   REMARKS
BOSTON         FAIR      43  27  53 NW13G23   30.25R                  
WORCESTER      FAIR      38  22  52 NW14G23   30.24R                  
NANTUCKET      FAIR      44  35  70 NW9       30.21R                  
PROVIDENCE     MOCLDY    46  25  43 N15G25    30.25R                  
HARTFORD       MOCLDY    41  25  53 NW14      30.31R                  
ALBANY         FAIR      37  24  59 W10       30.34F                  
NEW YORK CITY  FAIR      44  24  45 N13       30.34R                  
$$

ANZ081-ANZ082-ANZ150-NHZ014-MEZ023>029-210300-
COASTAL MARINE OBSERVATIONS
  
STATION/POSITION TIME  TEMP    WIND        PRES    WAVE
                       AIR SEA DIR/SP/G            HT/PER
                 (UTC) (F)     (DEG/KT/KT) (MB)    (FT/S)
MOUNT DESERT ROC 0200   41     300/ 12/ 14 1019.0R
MATINICUS ROCK   0100   43     300/ 21/ 23 1018.7R
ISLE OF SHOALS   0100   42     300/ 21/ 24 1022.1R
JEFFREYS LEDGE   0136      41                N/A     6/ 5
CASHES LEDGE BUO 0150   42 41              1020.3R   5/ 5
$$

.............KEY..............
   WCI - WIND CHILL
   TC  - TEMPERATURE IN CELSIUS
   VSB - VISIBILITY IN MILES
   HX  - HEAT INDEX
   FAIR- INDICATES FEW OR NO CLOUDS BELOW 12,000 FT, WITH NO 
         SIGNIFICANT WEATHER AND/OR OBSTRUCTIONS TO VISIBILITY.